Location: Baumgartsau
(48.4586°N, 14.0864°E)
Time: 01:27:26
(UTC+00:00)

SL-16 R/B - Pass Details

Date: 15 August 2020
Orbit: 843 x 845 km, 71.0° (Epoch: 26 September)

Event Time Altitude Azimuth Distance (km) Brightness Sun altitude
Rises 21:38:49 0° 318° (NW) 3,415 6.5 -24.8°
Reaches altitude 10° 21:42:19 10° 296° (WNW) 2,474 5.2 -25.0°
Maximum altitude 21:45:23 15° 263° (W) 2,131 4.4 -25.2°
Enters shadow 21:47:44 12° 236° (SW) 2,333 4.4 -25.4°
